www.pogodaiklimat.ru

Погода и климат >> Архив погоды >> Россия >> Приморский край >> Мельничное


ПОГОДА в Мельничном

  • Прогноз погоды в Мельничном
  • Монитор погоды в Мельничном

АРХИВ ПОГОДЫ в Мельничном

Время (UTC), дата Ветер
(напр.,м/с)
 
Видим.   Явления Облачность Т
(С)
Тd
(С)
f
(%)
Тe
(С)
Тes
(С)
Комфортность P
(гПа)
Po
(гПа)
Тmin
(С)
Tmax
(С)
R
(мм)
R24
(мм)
S
(см)
03 16.09 З 3 50 км 9/3 600 м
[Cu Sc Ac trans Cc]
+19.7 +8.4 48 +21 +22 комфорт 1010.1 972.0
06 16.09 СЗ 5 20 км 6 баллов +19.9 +8.2 47 +21 +22 комфорт 1010.0 972.0
09 16.09 З 2 20 км 3/3 600 м
[Sc Ac lent]
+15.1 +8.6 65 +15 +15 1012.0 973.3 +20.9
12 16.09 З 2 20 км ясно +11.0 +2.8 57 +10 +10 1015.5 976.0
15 16.09 З 1 20 км ясно +3.4 +2.1 91 +2 +2 1017.9 977.3
18 16.09 штиль 0 20 км ясно -0.3 -0.7 97 -2 -2 1018.5 977.3
21 16.09 штиль 0 200 м туман ?/? -0.6 -0.6 100 -2 -2 1020.0 978.7 -1.4
00 17.09 штиль 0 20 км в посл. час туман ясно +9.1 +3.3 67 +9 +16 1018.5 978.7
03 17.09 З 4 50 км ясно +15.7 -2.3 29 +15 +23 1016.2 977.3
06 17.09 СЗ 1 50 км ясно +18.1 -1.7 26 +19 +26 1014.5 976.0
09 17.09 ЮЗ 1 20 км ясно +10.4 +5.1 70 +10 +10 1013.8 974.3 +18.5
12 17.09 штиль 0 20 км ясно +2.6 +2.0 96 +1 +1 1016.7 976.0
15 17.09 В 1 20 км 3/0
[Ci fib]
+2.6 +1.9 95 +1 +1 1015.3 974.7
18 17.09 В 2 20 км 2 балла +1.3 +0.7 96 -2 -2 1012.7 972.0
21 17.09 В 2 20 км 10/10 300 м
[St]
+0.1 -0.5 96 -4 -4 1011.6 970.7 +0.1
00 18.09 штиль 0 10 км ливневой дождь, в посл. час гроза 10 баллов +3.0 +2.6 97 +2 +2 1011.1 970.7
03 18.09 З 5 50 км 7 баллов +10.6 +3.2 60 +8 +10 1008.6 969.3
06 18.09 З 3 20 км в посл. час ливневой дождь 7 баллов +5.4 +3.2 86 +2 +3 1012.1 972.0
09 18.09 З 4-10
{10}
20 км в посл. час ливневой дождь 10/10 600 м
[Cb cap]
+3.5 +1.1 84 -1 -1 1012.4 972.0 +11.1 10
12 18.09 СЗ 1 2000 м ливневой дождь 10 баллов +1.5 +0.9 96 -1 -1 1014.1 973.3
15 18.09 штиль 0 20 км в посл. час ливневой дождь 10/10 600 м
[Cb cap]
+1.4 +1.0 97 0 0 1012.7 972.0
18 18.09 штиль 0 20 км 9 баллов +1.0 +0.7 98 -0 -0 1010.0 969.3
21 18.09 З 3 50 км 9/4 600 м
[Sc Ac As]
+4.3 -0.5 71 +1 +1 1009.5 969.3 +0.6 4
00 19.09 З 4 10 км слаб. ливневой дождь 10 баллов +4.7 -0.9 67 +1 +1 1008.1 968.0
03 19.09 СЗ 2
{13}
10 км слаб. ливневой дождь 10/10 600 м
[Cb cap]
+3.7 +1.3 84 +1 +1 1009.6 969.3
06 19.09 З 3 10 км слаб. ливневой дождь 10 баллов +5.0 +2.5 84 +2 +2 1010.8 970.7
09 19.09 З 1 20 км {ливн. осадки} 10/10 600 м
[Cb cap]
+6.1 +3.1 81 +5 +5 1012.0 972.0 +6.4 2
12 19.09 З 4 20 км 10 баллов +8.1 +3.2 71 +5 +5 1013.1 973.3
15 19.09 СЗ 4 20 км 10/10 600 м
[Cb cap]
+8.4 +2.8 68 +5 +5 1014.5 974.7
18 19.09 штиль 0 20 км 10 баллов +6.5 +4.3 86 +6 +6 1016.1 976.0
21 19.09 З 1 20 км 10/10 600 м
[Sc]
+5.8 +3.6 86 +5 +5 1017.6 977.3 +5.8 0.0
00 20.09 СЗ 2 20 км 10 баллов +9.4 +3.4 66 +8 +8 1019.9 980.0
03 20.09 СЗ 3 50 км 8/8 600 м
[Sc]
+14.3 +4.0 50 +14 +16 1017.8 978.7
06 20.09 С 3 50 км 1 балл +15.8 +2.9 42 +15 +19 1017.6 978.7
09 20.09 штиль 0 20 км ясно +9.4 +5.9 79 +9 +9 1019.8 980.0 +16.1
12 20.09 штиль 0 20 км ясно +2.8 +2.2 96 +2 +2 1023.7 982.7
15 20.09 штиль 0 20 км ясно +0.6 +0.2 97 -1 -1 1024.0 982.7
18 20.09 В 2 500 м туман н/о +2.7 +2.7 100 -1 1023.7 982.7
00 21.09 В 2 20 км 10 баллов +3.7 +3.3 97 +1 +1 1022.0 981.3
03 21.09 В 1 20 км в посл. час ливневой дождь 10 баллов +6.1 +5.4 95 +5 +5 1021.7 981.3
06 21.09 штиль 0 20 км в посл. час ливневой дождь 9 баллов +9.8 +8.2 90 +9 +10 1019.8 980.0
09 21.09 З 1 10 км слаб. ливневой дождь 10 баллов +9.2 +8.3 94 +8 +8 1021.2 981.3 +10.0 2
12 21.09 штиль 0 20 км 10 баллов +8.1 +7.5 96 +7 +7 1024.2 984.0
15 21.09 З 1 20 км 10 баллов +7.9 +7.3 96 +7 +7 1024.2 984.0
18 21.09 штиль 0 20 км 10 баллов +6.8 +6.2 96 +6 +6 1024.4 984.0
21 21.09 штиль 0 10 км 10 баллов +6.6 +6.2 97 +5 +5 1025.8 985.3 +6.3 1
00 22.09 З 3 50 км 6 баллов +11.2 +5.3 67 +10 +11 1025.1 985.3
03 22.09 СЗ 4 50 км 4 балла +13.8 +3.0 48 +13 +17 1024.8 985.3
06 22.09 З 4 50 км 1 балл +15.9 +2.7 41 +15 +18 1023.1 984.0
09 22.09 штиль 0 20 км 10 баллов +10.5 +5.7 72 +10 +10 1023.8 984.0 +16.2
12 22.09 штиль 0 20 км 7 баллов +5.0 +4.3 95 +4 +4 1024.7 984.0
15 22.09 В 1 20 км 7 баллов +3.2 +2.8 97 +1 +1 1023.6 982.7
18 22.09 штиль 0 500 м туман н/о +3.9 +3.9 100 +3 1023.5 982.7
21 22.09 В 1 200 м туман н/о +3.9 +3.9 100 +2 1022.0 981.3 +2.4

 

Местоположение метеостанции Мельничное (Приморский край, Россия): широта 45.45 долгота 135.50 высота над уровнем моря 332 м.

В архиве по умолчанию представлена погода в Мельничном за последнюю неделю. Архивные данные за месяц целиком и за предыдущие месяцы, начиная с января 2011 года, Вы можете получить, выбрав интересующий диапазон дат из раскрывающегося списка и нажав кнопку "Ввод!".


*Определитесь, кто Вы:
робот инопланетянин человек

Внимание! Время в таблицах - всемирное. Для получения местного времени необходимо прибавить поправку, которая равна 10 ч.

Смотрите также архив погоды в соседних городах и на ближайших метеорологических станциях:

Погода в Глубинном (Приморский край, Россия) (71 км)
Погода в Тернее (Приморский край, Россия) (100 км)
Погода в Малиново (Приморский край, Россия) (102 км)
Погода в Красном Яре (Приморский край, Россия) (121 км)
Погода в Рудной Пристани (Приморский край, Россия) (122 км)
Погода в Малой Кеме (Приморский край, Россия) (125 км)
Погода в Богополе (Приморский край, Россия) (134 км)
Погода в Кавалерово (Приморский край, Россия) (139 км)
Погода в Дальнереченске (Приморский край, Россия) (148 км)
Погода в Кировском (Приморский край, Россия) (161 км)

Пояснения к столбцам:

Ветер - указаны скорость ветра в м/с - средняя за 10 мин, порывы в срок и между сроками (в фигурных скобках) и направление, откуда дует ветер: С - северный, СВ - северо-восточный, В - восточный, ЮВ - юго-восточный, Ю - южный, ЮЗ - юго-западный, З - западный, СЗ - северо-западный.
Видимость - горизонтальная дальность видимости в метрах или километрах. При видимости от 1 до 10 км при отсутствии осадков обычно наблюдается дымка, при ухудшении видимости до 1 км и менее - туман. В сухую погоду видимость может ухудшаться дымом, пылью или мглою.
Явления - указаны атмосферные явления, наблюдавшиеся в срок или в последний час перед сроком; фигурными скобками обозначены явления, наблюдавшиеся между сроками (за 1-3 часа до срока); квадратными скобками обозначены град или гололедные отложения с указанием их диаметра в мм.
Облачность - указаны через наклонную черту общая и нижняя облачность в баллах и высота нижней границы облаков в метрах; квадратными скобками обозначены формы облаков: Ci - перистые, Cs - перисто-слоистые, Cc - перисто-кучевые, Ac - высококучевые, As - высокослоистые, Sc - слоисто-кучевые, Ns - слоисто-дождевые, Cu - кучевые, Cb - кучево-дождевые. Подробнее классификацию облаков см. в Атласе облаков (PDF).
T - Температура воздуха - температура, измеренная на высоте 2 м над землей.
Td - Температура точки росы - температура, при понижении до которой содержащийся в воздухе водяной пар достигнет насыщения.
f - Относительная влажность воздуха - влажноcть воздуха, измеренная на высоте 2 м над землей.
Te - Эффективная температура - температура, которую ощущает одетый по сезону человек в тени. Характеристика душности погоды. При расчете учитывается влияние влажности воздуха и скорости ветра на теплоощущения человека.
Tes - Эффективная температура на солнце - температура, которую ощущает человек, с поправкой на солнечный нагрев. Характеристика знойности погоды. Зависит от высоты солнца над горизонтом, облачности и скорости ветра. Ночью, в пасмурную погоду, а также при ветре 12 м/с и более поправка равна нулю.
P - Атмосферное давление - приведенное к уровню моря атмосферное давление.
Po - Атмосферное давление - измеренное на уровне метеостанции атмосферное давление.
Tmin - Минимальная температура - минимум температуры воздуха на высоте 2 м над землей.
Tmax - Максимальная температура - максимум температуры воздуха на высоте 2 м над землей.
R - Количество осадков - Количество выпавших осадков за период времени, мм. При наведении курсора мыши на число - период времени, за который выпало указанное количество осадков.
R24 - Количество осадков - Количество выпавших осадков за 24 часа, мм.
S - Снежный покров - Высота снежного покрова, см. При наведении курсора мыши на число - состояние снежного покрова и степень покрытия местности в баллах.